Terug naar catalogus

TITAN 3C TRANSTAGE DEB

ActiefHEO
NORAD 36983·DEBRIS·🇺🇸 United States

Gelanceerd Dec 21, 1965 vanaf Cape Canaveral Space Force Station

Loading…

Volgende Passages (komende 24 uur)

TLE

VersSource: Space-Track

Epoch: Sep 9, 2026, 12:30 UTC

1 36983U 65108DP  26252.52115485  .00105660  00000-0  14741-2 0  9994
2 36983  27.0678 314.0985 4296237 256.8339  53.1238  7.00653146607041

Volg TITAN 3C TRANSTAGE DEB in realtime met AllMySat

Download on the App Store